Location: Bonn
(50.7330°N, 7.1000°E)
Time: 14:15:16
(UTC+02:00)

Cosmos 1933 Rocket - Visible Passes

Search period start: 26 September 2016 00:00
Search period end: 06 October 2016 00:00
Orbit: 608 x 630 km, 82.5° (Epoch: 26 September)

Date Brightness Start Highest point End Pass type
(mag) Time Alt. Az. Time Alt. Az. Time Alt. Az.
26 Sep 5.5 21:48:41 10° NNE 21:50:37 19° NE 21:50:37 19° NE visible
26 Sep 6.0 23:26:09 10° NNW 23:27:46 21° NNW 23:27:46 21° NNW visible
27 Sep 5.2 22:05:38 10° N 22:07:49 25° NNE 22:07:49 25° NNE visible
27 Sep 6.4 23:43:48 10° NNW 23:44:58 16° NW 23:44:58 16° NW visible
28 Sep 5.2 22:22:46 10° N 22:25:03 29° N 22:25:03 29° N visible
29 Sep 6.7 00:01:49 10° NW 00:02:12 11° NW 00:02:12 11° NW visible
29 Sep 5.6 21:03:21 10° NNE 21:05:08 15° NE 21:05:08 15° NE visible
29 Sep 5.4 22:40:03 10° NNW 22:42:17 29° NNW 22:42:17 29° NNW visible
30 Sep 5.2 21:19:59 10° NNE 21:22:23 21° NE 21:22:23 21° NE visible
30 Sep 5.7 22:57:31 10° NNW 22:59:32 24° NW 22:59:32 24° NW visible
01 Oct 4.8 21:36:57 10° N 21:39:40 30° NNE 21:39:40 30° NNE visible
01 Oct 6.2 23:15:11 10° NNW 23:16:48 18° NW 23:16:48 18° NW visible
02 Oct 5.7 20:19:19 10° NE 20:19:46 10° ENE 20:19:47 10° ENE visible
02 Oct 4.7 21:54:06 10° N 21:56:56 37° N 21:56:56 37° N visible
02 Oct 6.6 23:33:15 10° NW 23:34:06 13° WNW 23:34:06 13° WNW visible
03 Oct 5.3 20:34:38 10° NNE 20:37:06 16° ENE 20:37:06 16° ENE visible
03 Oct 4.8 22:11:24 10° NNW 22:14:15 38° NNW 22:14:15 38° NNW visible
04 Oct 4.8 20:51:18 10° NNE 20:54:26 25° NE 20:54:26 25° NE visible
04 Oct 5.3 22:28:52 10° NNW 22:31:35 31° NW 22:31:35 31° NW visible
05 Oct 4.3 21:08:16 10° N 21:11:47 38° NE 21:11:47 38° NE visible
05 Oct 5.9 22:46:34 10° NNW 22:48:56 22° WNW 22:48:56 22° WNW visible
